{"data":{"norad_id":65116,"intl_designator":"2025-169A","name":"QPS-SAR-12 (KUSHINADA-I)","alt_names":[],"object_type":"PAYLOAD","status":"ACTIVE","operator":null,"country":"JPN","launch_date":"2025-08-05","launch_site_code":"RLLB","launch_vehicle":null,"mission":null,"orbit_class":"UNKNOWN","rcs_meters":null,"size_class":null,"mass_kg":null,"dimensions":null,"purposes":[],"wikipedia_slug":null,"has_3d_model":false,"image_url":null,"decayed_at":null,"tle_current":{"epoch":"2026-05-25T00:16:03.957024Z","epoch_age_seconds":70227,"freshness":"FRESH","line1":"1 65116U 25169A   26145.01115691  .00003513  00000+0  28771-3 0  9993","line2":"2 65116  42.0102 143.5913 0005910  55.8132 304.3253 15.00606637 43938","mean_motion":15.00606637,"eccentricity":0.000591,"inclination_deg":42.0102,"raan_deg":143.5913,"arg_perigee_deg":55.8132,"mean_anomaly_deg":304.3253,"bstar":0.00028771,"rev_number":4393,"period_min":95.961190927346,"perigee_km":560.92107286343,"apogee_km":569.12788973433,"semimajor_km":6943.1614812989,"source":"CELESTRAK","updated_at":"2026-05-25T13:38:05.136382Z"}}}